Time,TemperatureF,DewpointF,PressureIn,WindDirection,WindDirectionDegrees,WindSpeedMPH,WindSpeedGustMPH,Humidity,HourlyPrecipIn,Conditions,Clouds,dailyrainin,SoftwareType,DateUTC
2013-03-29 00:51:00,30.1,24.0,30.31,WNW,294,0.0,0.0,78,0.00,,,0.00,weatherlink.com 1.10,2013-03-29 04:51:00,
2013-03-29 01:06:00,29.3,25.0,30.31,WNW,294,0.0,0.0,83,0.00,,,0.00,weatherlink.com 1.10,2013-03-29 05:06:00,
2013-03-29 01:22:00,28.4,24.0,30.31,WNW,294,0.0,0.0,83,0.00,,,0.00,weatherlink.com 1.10,2013-03-29 05:22:00,
2013-03-29 01:36:00,27.9,24.0,30.31,WNW,294,0.0,0.0,86,0.00,,,0.00,weatherlink.com 1.10,2013-03-29 05:36:00,
2013-03-29 01:51:00,27.8,24.0,30.31,WNW,294,0.0,0.0,87,0.00,,,0.00,weatherlink.com 1.10,2013-03-29 05:51:00,
2013-03-29 02:06:00,27.4,24.0,30.31,WNW,294,0.0,0.0,86,0.00,,,0.00,weatherlink.com 1.10,2013-03-29 06:06:00,
2013-03-29 02:21:00,26.7,23.0,30.31,WNW,294,0.0,0.0,87,0.00,,,0.00,weatherlink.com 1.10,2013-03-29 06:21:00,
2013-03-29 02:36:00,27.1,24.0,30.31,WNW,294,0.0,0.0,88,0.00,,,0.00,weatherlink.com 1.10,2013-03-29 06:36:00,
2013-03-29 02:51:00,27.7,25.0,30.31,WNW,294,0.0,0.0,88,0.00,,,0.00,weatherlink.com 1.10,2013-03-29 06:51:00,
2013-03-29 03:06:00,27.2,24.0,30.31,WNW,294,0.0,0.0,88,0.00,,,0.00,weatherlink.com 1.10,2013-03-29 07:06:00,
2013-03-29 03:21:00,26.7,24.0,30.31,WNW,294,0.0,0.0,89,0.00,,,0.00,weatherlink.com 1.10,2013-03-29 07:21:00,
2013-03-29 03:36:00,26.0,23.0,30.31,WNW,294,0.0,0.0,88,0.00,,,0.00,weatherlink.com 1.10,2013-03-29 07:36:00,
2013-03-29 03:51:00,25.6,23.0,30.30,WNW,294,0.0,0.0,89,0.00,,,0.00,weatherlink.com 1.10,2013-03-29 07:51:00,
2013-03-29 04:06:00,26.0,23.0,30.30,WNW,294,0.0,0.0,89,0.00,,,0.00,weatherlink.com 1.10,2013-03-29 08:06:00,
2013-03-29 04:21:00,26.1,23.0,30.30,WNW,294,0.0,0.0,89,0.00,,,0.00,weatherlink.com 1.10,2013-03-29 08:21:00,
2013-03-29 04:36:00,25.9,23.0,30.30,WNW,294,0.0,0.0,90,0.00,,,0.00,weatherlink.com 1.10,2013-03-29 08:36:00,
2013-03-29 04:51:00,26.3,24.0,30.30,WNW,294,0.0,0.0,89,0.00,,,0.00,weatherlink.com 1.10,2013-03-29 08:51:00,
2013-03-29 05:06:00,26.9,24.0,30.30,WNW,294,0.0,2.0,87,0.00,,,0.00,weatherlink.com 1.10,2013-03-29 09:06:00,
2013-03-29 05:21:00,26.5,23.0,30.29,WNW,294,0.0,2.0,85,0.00,,,0.00,weatherlink.com 1.10,2013-03-29 09:21:00,
2013-03-29 05:36:00,26.3,23.0,30.29,WNW,294,0.0,1.0,87,0.00,,,0.00,weatherlink.com 1.10,2013-03-29 09:36:00,
2013-03-29 06:06:00,25.8,22.0,30.29,WNW,294,0.0,0.0,86,0.00,,,0.00,weatherlink.com 1.10,2013-03-29 10:06:00,
2013-03-29 06:21:00,24.9,22.0,30.29,WNW,294,0.0,0.0,87,0.00,,,0.00,weatherlink.com 1.10,2013-03-29 10:21:00,
2013-03-29 06:36:00,24.5,22.0,30.29,WNW,294,0.0,0.0,88,0.00,,,0.00,weatherlink.com 1.10,2013-03-29 10:36:00,
2013-03-29 06:51:00,24.6,22.0,30.29,WNW,294,0.0,0.0,90,0.00,,,0.00,weatherlink.com 1.10,2013-03-29 10:51:00,
2013-03-29 07:07:00,24.4,22.0,30.29,WNW,294,0.0,0.0,89,0.00,,,0.00,weatherlink.com 1.10,2013-03-29 11:07:00,
2013-03-29 07:22:00,24.1,21.0,30.28,WNW,294,0.0,0.0,89,0.00,,,0.00,weatherlink.com 1.10,2013-03-29 11:22:00,
2013-03-29 07:37:00,23.9,21.0,30.29,WNW,294,0.0,0.0,90,0.00,,,0.00,weatherlink.com 1.10,2013-03-29 11:37:00,
2013-03-29 07:52:00,23.9,22.0,30.29,WNW,294,0.0,0.0,91,0.00,,,0.00,weatherlink.com 1.10,2013-03-29 11:52:00,
2013-03-29 08:07:00,24.3,22.0,30.30,WNW,294,0.0,0.0,91,0.00,,,0.00,weatherlink.com 1.10,2013-03-29 12:07:00,
2013-03-29 08:22:00,25.5,24.0,30.30,WNW,294,0.0,0.0,92,0.00,,,0.00,weatherlink.com 1.10,2013-03-29 12:22:00,
2013-03-29 08:37:00,28.5,27.0,30.31,WNW,294,0.0,0.0,92,0.00,,,0.00,weatherlink.com 1.10,2013-03-29 12:37:00,
2013-03-29 08:52:00,30.5,28.0,30.30,WNW,294,0.0,0.0,89,0.00,,,0.00,weatherlink.com 1.10,2013-03-29 12:52:00,
2013-03-29 09:07:00,31.8,28.0,30.31,WNW,294,0.0,0.0,87,0.00,,,0.00,weatherlink.com 1.10,2013-03-29 13:07:00,
2013-03-29 09:22:00,33.4,28.0,30.31,WNW,294,0.0,2.0,81,0.00,,,0.00,weatherlink.com 1.10,2013-03-29 13:22:00,
2013-03-29 09:37:00,35.6,29.0,30.31,WNW,294,1.0,3.0,76,0.00,,,0.00,weatherlink.com 1.10,2013-03-29 13:37:00,
2013-03-29 09:52:00,37.2,30.0,30.31,WNW,294,0.0,2.0,74,0.00,,,0.00,weatherlink.com 1.10,2013-03-29 13:52:00,
2013-03-29 10:07:00,38.7,30.0,30.32,WNW,294,2.0,4.0,70,0.00,,,0.00,weatherlink.com 1.10,2013-03-29 14:07:00,
2013-03-29 10:22:00,39.7,29.0,30.32,NW,315,1.0,3.0,65,0.00,,,0.00,weatherlink.com 1.10,2013-03-29 14:22:00,
2013-03-29 10:37:00,41.0,28.0,30.32,NW,315,0.0,4.0,60,0.00,,,0.00,weatherlink.com 1.10,2013-03-29 14:37:00,
2013-03-29 10:52:00,42.2,28.0,30.32,WNW,298,3.0,5.0,58,0.00,,,0.00,weatherlink.com 1.10,2013-03-29 14:52:00,
2013-03-29 11:07:00,42.5,27.0,30.32,NW,304,2.0,9.0,55,0.00,,,0.00,weatherlink.com 1.10,2013-03-29 15:07:00,
2013-03-29 11:22:00,43.4,27.0,30.32,WNW,297,2.0,8.0,52,0.00,,,0.00,weatherlink.com 1.10,2013-03-29 15:22:00,
2013-03-29 11:38:00,44.4,28.0,30.32,NW,316,1.0,10.0,52,0.00,,,0.00,weatherlink.com 1.10,2013-03-29 15:38:00,
2013-03-29 11:53:00,44.6,27.0,30.32,NW,326,3.0,12.0,51,0.00,,,0.00,weatherlink.com 1.10,2013-03-29 15:53:00,
2013-03-29 12:08:00,45.2,26.0,30.31,WNW,296,1.0,11.0,48,0.00,,,0.00,weatherlink.com 1.10,2013-03-29 16:08:00,
2013-03-29 12:23:00,45.5,26.0,30.31,WSW,240,0.0,11.0,47,0.00,,,0.00,weatherlink.com 1.10,2013-03-29 16:23:00,
2013-03-29 12:38:00,46.3,25.0,30.30,WNW,302,3.0,11.0,43,0.00,,,0.00,weatherlink.com 1.10,2013-03-29 16:38:00,
2013-03-29 12:53:00,46.9,25.0,30.30,NNW,327,7.0,12.0,43,0.00,,,0.00,weatherlink.com 1.10,2013-03-29 16:53:00,
2013-03-29 13:08:00,46.8,25.0,30.30,WNW,300,3.0,10.0,42,0.00,,,0.00,weatherlink.com 1.10,2013-03-29 17:08:00,
2013-03-29 13:23:00,47.5,26.0,30.29,WNW,288,3.0,12.0,44,0.00,,,0.00,weatherlink.com 1.10,2013-03-29 17:23:00,
2013-03-29 13:38:00,48.0,26.0,30.29,NW,315,9.0,12.0,43,0.00,,,0.00,weatherlink.com 1.10,2013-03-29 17:38:00,
2013-03-29 13:53:00,48.0,26.0,30.28,North,5,6.0,10.0,43,0.00,,,0.00,weatherlink.com 1.10,2013-03-29 17:53:00,
2013-03-29 14:08:00,48.5,26.0,30.28,NW,321,2.0,11.0,41,0.00,,,0.00,weatherlink.com 1.10,2013-03-29 18:08:00,
2013-03-29 14:23:00,48.9,26.0,30.27,North,360,6.0,11.0,41,0.00,,,0.00,weatherlink.com 1.10,2013-03-29 18:23:00,
2013-03-29 14:38:00,49.2,27.0,30.26,NW,304,5.0,14.0,42,0.00,,,0.00,weatherlink.com 1.10,2013-03-29 18:38:00,
2013-03-29 14:53:00,49.3,26.0,30.26,NW,306,0.0,8.0,41,0.00,,,0.00,weatherlink.com 1.10,2013-03-29 18:53:00,
2013-03-29 15:08:00,50.2,26.0,30.25,SW,220,2.0,10.0,39,0.00,,,0.00,weatherlink.com 1.10,2013-03-29 19:08:00,
2013-03-29 15:23:00,50.8,26.0,30.25,WSW,254,2.0,9.0,38,0.00,,,0.00,weatherlink.com 1.10,2013-03-29 19:23:00,
2013-03-29 15:38:00,50.8,26.0,30.25,WNW,301,9.0,14.0,39,0.00,,,0.00,weatherlink.com 1.10,2013-03-29 19:38:00,
2013-03-29 15:53:00,50.1,25.0,30.24,North,9,5.0,16.0,38,0.00,,,0.00,weatherlink.com 1.10,2013-03-29 19:53:00,
2013-03-29 16:08:00,50.9,27.0,30.24,NW,304,1.0,17.0,39,0.00,,,0.00,weatherlink.com 1.10,2013-03-29 20:08:00,
2013-03-29 16:23:00,50.8,26.0,30.23,WNW,296,16.0,16.0,39,0.00,,,0.00,weatherlink.com 1.10,2013-03-29 20:23:00,
2013-03-29 16:38:00,51.1,27.0,30.23,NW,311,9.0,15.0,39,0.00,,,0.00,weatherlink.com 1.10,2013-03-29 20:38:00,
2013-03-29 16:53:00,51.6,28.0,30.22,NNW,333,10.0,15.0,40,0.00,,,0.00,weatherlink.com 1.10,2013-03-29 20:53:00,
2013-03-29 17:08:00,51.6,27.0,30.22,West,280,6.0,12.0,39,0.00,,,0.00,weatherlink.com 1.10,2013-03-29 21:08:00,
2013-03-29 17:23:00,51.5,28.0,30.22,NW,306,8.0,18.0,40,0.00,,,0.00,weatherlink.com 1.10,2013-03-29 21:23:00,
2013-03-29 17:38:00,51.4,26.0,30.22,NW,315,7.0,15.0,37,0.00,,,0.00,weatherlink.com 1.10,2013-03-29 21:38:00,
2013-03-29 17:53:00,51.2,27.0,30.21,WNW,287,6.0,16.0,39,0.00,,,0.00,weatherlink.com 1.10,2013-03-29 21:53:00,
2013-03-29 18:08:00,51.0,26.0,30.22,NNW,328,11.0,15.0,38,0.00,,,0.00,weatherlink.com 1.10,2013-03-29 22:08:00,
2013-03-29 18:23:00,50.8,26.0,30.22,WNW,298,8.0,15.0,39,0.00,,,0.00,weatherlink.com 1.10,2013-03-29 22:23:00,
2013-03-29 18:38:00,50.1,25.0,30.22,WNW,296,12.0,15.0,38,0.00,,,0.00,weatherlink.com 1.10,2013-03-29 22:38:00,
2013-03-29 18:53:00,49.4,25.0,30.22,WNW,292,9.0,15.0,38,0.00,,,0.00,weatherlink.com 1.10,2013-03-29 22:53:00,
2013-03-29 19:08:00,49.0,24.0,30.22,West,271,6.0,11.0,38,0.00,,,0.00,weatherlink.com 1.10,2013-03-29 23:08:00,
2013-03-29 19:23:00,47.8,24.0,30.22,WNW,296,6.0,13.0,39,0.00,,,0.00,weatherlink.com 1.10,2013-03-29 23:23:00,
2013-03-29 19:38:00,46.8,23.0,30.22,WNW,292,2.0,10.0,40,0.00,,,0.00,weatherlink.com 1.10,2013-03-29 23:38:00,
2013-03-29 19:53:00,45.1,24.0,30.23,WNW,296,2.0,4.0,44,0.00,,,0.00,weatherlink.com 1.10,2013-03-29 23:53:00,
2013-03-29 20:08:00,43.7,23.0,30.23,WNW,296,4.0,7.0,44,0.00,,,0.00,weatherlink.com 1.10,2013-03-30 00:08:00,
2013-03-29 20:23:00,42.2,24.0,30.23,WNW,298,2.0,4.0,48,0.00,,,0.00,weatherlink.com 1.10,2013-03-30 00:23:00,
2013-03-29 20:38:00,41.2,24.0,30.23,WNW,293,2.0,5.0,50,0.00,,,0.00,weatherlink.com 1.10,2013-03-30 00:38:00,
2013-03-29 20:53:00,39.6,23.0,30.23,WNW,293,0.0,1.0,51,0.00,,,0.00,weatherlink.com 1.10,2013-03-30 00:53:00,
2013-03-29 21:08:00,38.3,22.0,30.23,WNW,293,0.0,0.0,53,0.00,,,0.00,weatherlink.com 1.10,2013-03-30 01:08:00,
2013-03-29 21:23:00,36.8,22.0,30.24,WNW,293,0.0,0.0,56,0.00,,,0.00,weatherlink.com 1.10,2013-03-30 01:23:00,
2013-03-29 21:38:00,35.7,25.0,30.24,WNW,293,0.0,0.0,65,0.00,,,0.00,weatherlink.com 1.10,2013-03-30 01:38:00,
2013-03-29 21:53:00,35.6,24.0,30.24,WNW,293,0.0,0.0,62,0.00,,,0.00,weatherlink.com 1.10,2013-03-30 01:53:00,
2013-03-29 22:08:00,35.8,24.0,30.25,WNW,293,0.0,0.0,62,0.00,,,0.00,weatherlink.com 1.10,2013-03-30 02:08:00,
2013-03-29 22:23:00,35.5,24.0,30.25,WNW,293,0.0,0.0,62,0.00,,,0.00,weatherlink.com 1.10,2013-03-30 02:23:00,
2013-03-29 22:40:00,35.0,24.0,30.25,WNW,293,0.0,0.0,65,0.00,,,0.00,weatherlink.com 1.10,2013-03-30 02:40:00,
2013-03-29 22:53:00,33.9,23.0,30.25,WNW,293,0.0,0.0,64,0.00,,,0.00,weatherlink.com 1.10,2013-03-30 02:53:00,
2013-03-29 23:08:00,32.6,23.0,30.25,WNW,293,0.0,0.0,69,0.00,,,0.00,weatherlink.com 1.10,2013-03-30 03:08:00,
2013-03-29 23:23:00,31.8,23.0,30.25,WNW,293,0.0,0.0,70,0.00,,,0.00,weatherlink.com 1.10,2013-03-30 03:23:00,
2013-03-29 23:38:00,31.3,23.0,30.25,WNW,293,0.0,0.0,71,0.00,,,0.00,weatherlink.com 1.10,2013-03-30 03:38:00,
2013-03-29 23:53:00,30.4,23.0,30.25,WNW,293,0.0,0.0,73,0.00,,,0.00,weatherlink.com 1.10,2013-03-30 03:53:00,